sat.trackr.live / text

‹ back to catalog

STARLINK-11524 [DTC]

NORAD 62839 · 2025-019L

PAYLOAD ACTIVE UNKNOWN

§ Identity

Operator
Country
US
Launch date
2025-01-27
Launch site
AFETR
Launch vehicle
Mass (kg)
RCS (m²)

Purposes: comms

External: N2YO · Heavens-Above · Gunter

§ Orbital elements

Epoch: 2026-09-21T06:04:56.504928Z

Period
91.67 min
Inclination
42.9995°
Eccentricity
0.0001745
Mean motion
15.70861663 rev/d
Perigee alt
355.3 km
Apogee alt
357.6 km
Semi-major
6,734.6 km
B*
-1.8813e-4
RAAN
207.5648°
Arg perigee
320.1326°
Mean anomaly
39.9413°
Rev number
9,463

§ Raw data

STARLINK-11524 [DTC]1 62839U 25019L   26264.25343177 -.00024540  00000+0 -18813-3 0  99972 62839  42.9995 207.5648 0001745 320.1326  39.9413 15.70861663 94638

JSON: /api/v1/satellites/62839 · /tle

For live sub-satellite position, see the globe view (requires WebGL).

§ Visibility from observer

Set your observer location to see the next 7 days of passes ≥ 10°. The values pass through the URL so the page stays shareable.

No JS? Fill the form by hand. The geolocation button needs JavaScript.